Location: Dehesa de la Cepeda
(40.6574°N, 4.3013°W)
Time: 02:44:30
(UTC+00:00)

Courier 1B - Pass Details

Date: 04 August 2021
Orbit: 963 x 1209 km, 28.3° (Epoch: 17 September)

Event Time Altitude Azimuth Distance (km) Brightness Sun altitude
Rises 19:42:17 0° 249° (WSW) 4,099 11.5 -3.1°
Reaches altitude 10° 19:45:27 10° 240° (WSW) 3,141 10.7 -3.7°
Maximum altitude 19:52:14 33° 180° (S) 1,902 8.8 -4.8°
Drops below altitude 10° 19:58:55 10° 120° (ESE) 3,088 9.4 -5.9°
Enters shadow 19:59:50 - 117° (ESE) 3,351 9.6 -6.1°
Sets 20:02:00 0° 111° (ESE) 4,021 - -6.4°
